Regional Weather Roundup
Issued by NWS

Home | Current Version | Previous Version | Graphics & Text | Print | Product List | Glossary Off
Versions: 1 2 3 4 5 6 7 8 9 10 11 12 13 14 15 16 17 18 19 20 21 22 23 24 25 26 27 28

000
ASUS45 KCYS 251610
RWRWY

WYOMING REGIONAL WEATHER ROUNDUP
NATIONAL WEATHER SERVICE CHEYENNE WY
1000 AM MDT SAT OCT 25 2014

NOTE:  "FAIR" INDICATES FEW OR NO CLOUDS BELOW 12,000 FEET
WITH NO SIGNIFICANT WEATHER AND/OR OBSTRUCTIONS TO VISIBILITY.

WYZ001-251700-
YELLOWSTONE NATIONAL PARK

CITY           SKY/WX    TMP DP  RH WIND       PRES   REMARKS
LK YELLOWSTONE   N/A     41  31  67 CALM      30.22
W YELLOWSTONE  NOT AVBL

$$
WYZ002>013-054>058-071-098>099-251700-
NORTHERN WYOMING

CITY           SKY/WX    TMP DP  RH WIND       PRES   REMARKS
JACKSON        SUNNY     39  28  65 CALM      30.21S
CODY           SUNNY     54  28  37 CALM      30.06
GREYBULL         N/A     42  31  64 CALM      30.07F
WORLAND        SUNNY     44  32  62 W5        30.07F
SHERIDAN       SUNNY     41  32  70 CALM      30.05F
BUFFALO        SUNNY     60  25  26 CALM      30.08F
GILLETTE       SUNNY     52  33  48 S23       30.10F
HULETT         FAIR      50  34  53 CALM      30.12
NEWCASTLE      FAIR      52  34  50 S9        30.17

$$
WYZ014>020-022>026-101>103-251700-
CENTRAL WYOMING

CITY           SKY/WX    TMP DP  RH WIND       PRES   REMARKS
BIG PINEY      MOSUNNY   38  21  50 CALM      30.27S
PINEDALE       SUNNY     43  28  56 CALM      30.27
DUBOIS         FAIR      46  19  34 W6        30.20F
LANDER         SUNNY     51  22  31 VRB3      30.15S
RIVERTON       SUNNY     48  22  35 CALM      30.16S
CASPER         SUNNY     65  26  23 SW16G25   30.15F
DOUGLAS        SUNNY     53  27  36 SE5       30.17F

$$
WYZ021-027>030-104>119-251700-
SOUTHERN WYOMING

CITY           SKY/WX    TMP DP  RH WIND       PRES   REMARKS
EVANSTON       SUNNY     55  24  30 S3        30.24R
KEMMERER       MOSUNNY   45  28  53 N5        30.27R
FORT BRIDGER   FAIR      47  24  39 CALM      30.28S
ROCK SPRINGS   MOSUNNY   48  31  51 CALM      30.25S
DIXON          FAIR      54  32  42 CALM      30.31F
RAWLINS        SUNNY     54  25  32 E6        30.27F
SARATOGA       FAIR      55  25  30 SE10      30.30F
LARAMIE        SUNNY     59  21  23 SW13      30.31F
CHEYENNE       SUNNY     67  25  20 CALM      30.26F
TORRINGTON     SUNNY     50  35  56 CALM      30.17F
PINE BLUFFS    FAIR      59  36  41 CALM      30.23S

$$



USA.gov is the U.S. government's official web portal to all federal, state and local government web resources and services.